Home   Weather   Miami Beach   Past weeks
Flag for USA

Past Weather in Miami Beach, Florida, USA — January 2019

Now
90 °F

Partly sunny.


Feels Like: 99 °F
Forecast: 90 / 82 °F
Wind: 7 mph from South

Location: Miami International Airport

Current Time: Jul 7, 2020 at 7:38:23 pm

Latest Report: Jul 7, 2020 at 6:53 pm


Visibility: 10 mi

Pressure: 30.01 "Hg

Humidity: 59%

Dew Point: 74 °F

Location of Miami BeachLocation

January 2019 Weather in Miami Beach — Graph

°F

High & Low Weather Summary for January 2019

 TemperatureHumidityPressure
High83 °F (Jan 4, 1:53 pm)100% (Jan 3, 11:53 pm)30.35 "Hg (Jan 3, 11:53 pm)
Low46 °F (Jan 21, 6:53 am)21% (Jan 10, 3:53 pm)29.70 "Hg (Jan 27, 6:53 pm)
Average68 °F77%30.10 "Hg
* Reported Jan 1 12:53 am — Jan 31 11:53 pm, Miami Beach. Weather by CustomWeather, © 2020

Note: Actual official high and low records may vary slightly from our data, if they occured in-between our weather recording intervals... More about our weather records

Miami Beach Weather History for January 1, 2019

Scroll right to see more
 ConditionsComfort  
Time TempWeatherWind HumidityBarometerVisibility
12:53 am
Tue, Jan 1
74 °FPassing clouds.5 mph94%30.13 "Hg10 mi
1:53 am74 °FPassing clouds.5 mph94%30.13 "Hg10 mi
2:53 am74 °FPassing clouds.5 mph91%30.13 "Hg10 mi
3:53 am73 °FPassing clouds.8 mph90%30.13 "Hg10 mi
4:53 am73 °FPassing clouds.7 mph90%30.13 "Hg10 mi
5:53 am73 °FPassing clouds.8 mph90%30.14 "Hg10 mi
6:53 am72 °FPassing clouds.8 mph93%30.16 "Hg10 mi
7:53 am75 °FPartly sunny.9 mph88%30.17 "Hg10 mi
8:53 am76 °FBroken clouds.10 mph88%30.18 "Hg10 mi
9:53 am79 °FPartly sunny.13 mph77%30.19 "Hg10 mi
10:53 am79 °FPartly sunny.16 mph77%30.18 "Hg10 mi
11:53 am81 °FPartly sunny.16 mph72%30.16 "Hg10 mi
12:53 pm79 °FPartly sunny.16 mph74%30.13 "Hg10 mi
1:53 pm82 °FPartly sunny.15 mph70%30.12 "Hg10 mi
2:53 pm79 °FPartly sunny.13 mph74%30.12 "Hg10 mi
3:53 pm77 °FScattered clouds.13 mph79%30.12 "Hg10 mi
4:53 pm77 °FBroken clouds.13 mph77%30.13 "Hg10 mi
5:53 pm76 °FPassing clouds.12 mph80%30.14 "Hg10 mi
6:53 pm75 °FPassing clouds.10 mph85%30.16 "Hg10 mi
7:53 pm76 °FOvercast.12 mph82%30.18 "Hg10 mi
8:53 pm76 °FPassing clouds.10 mph80%30.18 "Hg10 mi
9:53 pm76 °FPassing clouds.12 mph77%30.18 "Hg10 mi
10:53 pm75 °FPassing clouds.10 mph79%30.17 "Hg10 mi
11:53 pm75 °FPartly cloudy.7 mph79%30.17 "Hg10 mi
Weather by CustomWeather, © 2020

See weather overview